• Join FlightAware (Why Join?)
  • Login
  • US Flag 
02:58PM EST


 

Airport Tracker/Info


-or-


 

Live Flight TrackerFlight Track Log ✈ ASQ4252 ✈ 16-Jun-2013 ✈ KGSO - KIAD

Flight Track Log - Related Links

Times and Time Zones

All times are in EDT time to prevent confusion due to time zone crossing. See the ASQ4252 flight status page for this flight to view local times or setup timezone preferences in your user account.

Time Position Orientation Groundspeed Altitude Reporting Facility
EDT Latitude Longitude Course Direction KTS MPH feet Rate Location/Type
02:08PM 36.0683 -79.8319 43° Northeast 257 296 8,000  Level Washington Center
02:09PM 36.2484 -79.5994 61° Northeast  Level FlightAware Approximate
02:09PM 36.1144 -79.7675 48° Northeast 255 293 10,500  Level Washington Center
02:10PM 36.2911 -79.5033 61° Northeast  Level FlightAware Approximate
02:10PM 36.1550 -79.6850 59° Northeast 281 323 11,300  Level Washington Center
02:11PM 36.3498 -79.4225 47° Northeast  Level FlightAware Approximate
02:11PM 36.2008 -79.5636 65° Northeast 332 382 12,200  Level Washington Center
02:12PM 36.4004 -79.3329 43° Northeast  Level FlightAware Approximate
02:12PM 36.2439 -79.4553 64° Northeast 379 436 13,600  Level Washington Center
02:13PM 36.4649 -79.2577 43° Northeast  Level FlightAware Approximate
02:13PM 36.2961 -79.3211 64° Northeast 385 443 15,200  Level Washington Center
02:14PM 36.3392 -79.2175 63° Northeast 385 443 17,200 2,017 Climbing Washington Center
02:15PM 36.4050 -79.1044 54° Northeast 369 425 19,200 1,537 Climbing Washington Center
02:16PM 36.4828 -79.0175 42° Northeast 369 425 20,300 1,091 Climbing Washington Center
02:17PM 36.5644 -78.9253 42° Northeast 369 425 21,400 1,041 Climbing Washington Center
02:18PM 36.6506 -78.8333 41° Northeast 389 448 22,400 814 Climbing Washington Center
02:19PM 36.7258 -78.7431 44° Northeast 405 466 23,000 305 Climbing Washington Center
02:20PM 36.8247 -78.6303 42° Northeast 422 486 23,000  Level Washington Center
02:21PM 36.9192 -78.5250 42° Northeast 439 505 23,000  Level Washington Center
02:22PM 37.0158 -78.4142 42° Northeast 450 518 23,000 -149 Level Washington Center
02:23PM 37.1122 -78.3058 42° Northeast 455 524 22,700 -347 Descending Washington Center
02:24PM 37.2022 -78.2019 43° Northeast 460 529 22,300 -353 Descending Washington Center
02:25PM 37.2961 -78.0956 42° Northeast 460 529 22,000 -151 Descending Washington Center
02:26PM 37.3922 -77.9864 42° Northeast 460 529 22,000  Level Washington Center
02:27PM 37.4861 -77.8742 43° Northeast 460 529 22,000  Level Washington Center
02:28PM 37.5942 -77.7883 32° Northeast 460 529 22,000 -694 Level Washington Center
02:29PM 37.7081 -77.7206 25° Northeast 451 519 20,600 -2,085 Descending Washington Center
02:30PM 37.8175 -77.6581 24° Northeast 437 503 17,900 -2,441 Descending Washington Center
02:31PM 37.9208 -77.6003 24° Northeast 417 480 15,800 -2,200 Descending Washington Center
02:32PM 38.0197 -77.5397 26° Northeast 400 460 13,500 -2,380 Descending Washington Center
02:33PM 38.1144 -77.4894 23° Northeast 376 433 11,000 -1,721 Descending Washington Center
02:34PM 38.1967 -77.4386 26° Northeast 349 402 10,000 -836 Descending Washington Center
02:35PM 38.2742 -77.4139 14° North 310 357 9,300 -908 Descending Washington Center
02:36PM 38.3514 -77.4053 North 288 331 8,200 -1,412 Descending Washington Center
02:37PM 38.4267 -77.3939 North 278 320 6,500 -1,512 Descending Washington Center
02:38PM 38.5039 -77.3825 North 273 314 5,100 -750 Descending Washington Center
02:39PM 38.5792 -77.3711 North 273 314 5,000 -362 Descending Washington Center
02:40PM 38.6522 -77.3647 North 273 314 4,400 -504 Descending Washington Center
02:41PM 38.7272 -77.3614 North 273 314 4,000 -242 Descending Washington Center
02:42PM 38.8167 -77.3500 North 264 304 3,900 -290 Descending Potomac TRACON
02:43PM 38.8833 -77.3500 360° North 262 302 3,400 -446 Descending Potomac TRACON
02:44PM 38.9667 -77.3500 360° North 270 311 3,000 -400 Descending Potomac TRACON